Statesville, NC

4:58 AM EDT on April 27, 2018 (GMT -0400)
Statesville Municipal

Weather History for KSVH - April, 2013

Change the Weather History Date:

Wednesday, April 3, 2013

  Actual Average (KHKY) Record (KHKY)
Temperature  
Mean Temperature 47 °F -  
Max Temperature 56 °F 66 °F 86 °F (1963)
Min Temperature 38 °F 44 °F 25 °F (1972)
Degree Days  
Heating Degree Days 18    
Moisture  
Dew Point 20 °F    
Average Humidity 32    
Maximum Humidity 46    
Minimum Humidity 23    
Precipitation  
Precipitation 0.00 in - - ()
Sea Level Pressure  
Sea Level Pressure 30.22 in    
Wind  
Wind Speed 5 mph (NNE)    
Max Wind Speed 13 mph    
Max Gust Speed 17 mph    
Visibility 10 miles    
Events      
Averages and records for this station are not official NWS values.
T = Trace of Precipitation, MM = Missing Value Source: NWS Daily Summary

Daily Weather History Graph

Daily Weather History Graph

Search for Another Location

Airport or City:

Astronomy

Apr. 03, 2013 Rise Set
Actual Time 7:07 AM EDT 7:47 PM EDT
Civil Twilight 6:41 AM EDT 8:13 PM EDT
Nautical Twilight 6:10 AM EDT 8:43 PM EDT
Astronomical Twilight 5:39 AM EDT 9:15 PM EDT
Moon 2:34 AM EDT (4/3) 1:10 PM EDT (4/3)
Length of Visible Light 13h 31m
Length of Day
12h 40m
Last Quarter, 45% of the Moon is Illuminated
Apr 3
Last Quarter
Apr 10
New
Apr 18
First Quarter
Apr 25
Full
May 2
Last Quarter

Hourly Weather History & Observations

Time (EDT) Temp. Windchill Dew Point Humidity Pressure Visibility Wind Dir Wind Speed Gust Speed Precip Events Conditions
12:15 AM 50.0 °F - 19.8 °F 30% 30.14 in 10.0 mi NNW 4.6 mph - N/A   Scattered Clouds
12:35 AM 50.0 °F - 20.3 °F 31% 30.13 in 10.0 mi NNW 3.5 mph - N/A   Scattered Clouds
12:55 AM 49.6 °F - 19.8 °F 31% 30.14 in 10.0 mi Calm Calm - N/A   Scattered Clouds
1:15 AM 49.5 °F - 19.8 °F 31% 30.15 in 10.0 mi Calm Calm - N/A   Scattered Clouds
1:35 AM 48.4 °F - 23.7 °F 38% 30.15 in 10.0 mi Calm Calm - N/A   Clear
1:55 AM 48.6 °F - 19.9 °F 32% 30.17 in 10.0 mi Calm Calm - N/A   Scattered Clouds
2:15 AM 46.6 °F - 24.8 °F 43% 30.17 in 10.0 mi North 5.8 mph - N/A   Scattered Clouds
2:35 AM 47.5 °F - 21.2 °F 35% 30.17 in 10.0 mi North 5.8 mph - N/A   Scattered Clouds
2:55 AM 47.1 °F - 19.9 °F 34% 30.17 in 10.0 mi North 6.9 mph - N/A   Scattered Clouds
3:15 AM 46.0 °F 43.1 °F 20.5 °F 36% 30.17 in 10.0 mi NNE 5.8 mph - N/A   Clear
3:35 AM 45.1 °F 42.0 °F 19.6 °F 36% 30.17 in 10.0 mi NNE 5.8 mph - N/A   Clear
3:55 AM 44.6 °F 40.7 °F 18.7 °F 36% 30.17 in 10.0 mi NNE 6.9 mph - N/A   Clear
4:15 AM 43.7 °F 39.7 °F 17.4 °F 35% 30.17 in 10.0 mi NNE 6.9 mph - N/A   Clear
4:35 AM 43.2 °F 37.9 °F 16.7 °F 35% 30.17 in 10.0 mi North 9.2 mph - N/A   Scattered Clouds
4:55 AM 42.8 °F 37.5 °F 15.8 °F 34% 30.18 in 10.0 mi North 9.2 mph - N/A   Clear
5:15 AM 42.1 °F 37.1 °F 14.9 °F 33% 30.18 in 10.0 mi North 8.1 mph - N/A   Clear
5:35 AM 40.8 °F 36.2 °F 14.9 °F 35% 30.19 in 10.0 mi NNE 6.9 mph - N/A   Clear
5:55 AM 40.1 °F 34.7 °F 15.1 °F 36% 30.18 in 10.0 mi NNE 8.1 mph - N/A   Clear
6:15 AM 40.1 °F 34.7 °F 14.5 °F 35% 30.19 in 10.0 mi NNE 8.1 mph - N/A   Clear
6:35 AM 39.2 °F 35.0 °F 14.9 °F 37% 30.20 in 10.0 mi NNE 5.8 mph - N/A   Clear
6:55 AM 38.5 °F 36.1 °F 15.1 °F 39% 30.23 in 10.0 mi NNE 3.5 mph - N/A   Clear
7:15 AM 38.3 °F 33.2 °F 14.9 °F 39% 30.23 in 10.0 mi North 6.9 mph - N/A   Clear
7:35 AM 38.3 °F 34.8 °F 16.0 °F 40% 30.24 in 10.0 mi NNE 4.6 mph - N/A   Clear
7:55 AM 39.0 °F 35.7 °F 16.9 °F 41% 30.25 in 10.0 mi NNE 4.6 mph - N/A   Clear
8:15 AM 40.5 °F 35.1 °F 16.5 °F 38% 30.26 in 10.0 mi NNE 8.1 mph - N/A   Clear
8:35 AM 41.9 °F 37.5 °F 16.5 °F 36% 30.27 in 10.0 mi NNE 6.9 mph - N/A   Clear
8:55 AM 42.8 °F 37.0 °F 16.0 °F 34% 30.28 in 10.0 mi NNE 10.4 mph - N/A   Clear
9:15 AM 43.9 °F 39.9 °F 16.9 °F 34% 30.28 in 10.0 mi NNE 6.9 mph - N/A   Clear
9:35 AM 45.0 °F 40.1 °F 17.4 °F 33% 30.28 in 10.0 mi NE 9.2 mph - N/A   Clear
9:55 AM 45.5 °F 40.3 °F 16.7 °F 32% 30.29 in 10.0 mi NE 10.4 mph - N/A   Clear
10:15 AM 45.5 °F 39.6 °F 16.2 °F 31% 30.28 in 10.0 mi NNE 12.7 mph 16.1 mph N/A   Clear
10:35 AM 46.2 °F 40.8 °F 17.8 °F 32% 30.28 in 10.0 mi NNE 11.5 mph 17.3 mph N/A   Clear
10:55 AM 46.2 °F 40.5 °F 17.2 °F 31% 30.28 in 10.0 mi NNE 12.7 mph 17.3 mph N/A   Clear
11:15 AM 47.1 °F - 17.8 °F 31% 30.27 in 10.0 mi NNE 10.4 mph - N/A   Clear
11:35 AM 47.3 °F - 17.6 °F 31% 30.26 in 10.0 mi North 6.9 mph - N/A   Clear
11:55 AM 49.1 °F - 20.3 °F 32% 30.26 in 10.0 mi North 10.4 mph - N/A   Clear
12:15 PM 48.9 °F - 18.7 °F 30% 30.26 in 10.0 mi North 9.2 mph - N/A   Clear
12:35 PM 49.3 °F - 17.4 °F 28% 30.26 in 10.0 mi Calm Calm - N/A   Clear
12:55 PM 50.2 °F - 19.2 °F 29% 30.26 in 10.0 mi North 4.6 mph - N/A   Clear
1:15 PM 51.4 °F - 21.7 °F 31% 30.24 in 10.0 mi West 3.5 mph - N/A   Clear
1:35 PM 52.3 °F - 21.2 °F 30% 30.24 in 10.0 mi East 5.8 mph - N/A   Unknown
1:55 PM 52.5 °F - 19.8 °F 28% 30.24 in 10.0 mi East 3.5 mph - N/A   Unknown
2:15 PM 52.9 °F - 19.0 °F 26% 30.23 in 10.0 mi ESE 4.6 mph - N/A   Unknown
2:35 PM 53.2 °F - 18.5 °F 26% 30.22 in 10.0 mi ENE 3.5 mph - N/A   Unknown
2:55 PM 54.3 °F - 20.3 °F 26% 30.21 in 10.0 mi Calm Calm - N/A   Unknown
3:15 PM 54.9 °F - 21.4 °F 27% 30.22 in 10.0 mi West 6.9 mph - N/A   Unknown
3:35 PM 55.8 °F - 20.1 °F 25% 30.21 in 10.0 mi Calm Calm - N/A   Unknown
3:55 PM 56.7 °F - 22.8 °F 27% 30.21 in 10.0 mi Calm Calm - N/A   Unknown
4:15 PM 55.8 °F - 19.0 °F 24% 30.21 in 10.0 mi WSW 4.6 mph - N/A   Unknown
4:35 PM 56.3 °F - 19.6 °F 24% 30.21 in 10.0 mi NNW 3.5 mph - N/A   Unknown
4:55 PM 56.7 °F - 20.1 °F 24% 30.21 in 10.0 mi Calm Calm - N/A   Unknown
5:15 PM 56.5 °F - 19.0 °F 23% 30.20 in 10.0 mi Calm Calm - N/A   Unknown
5:35 PM 56.3 °F - 19.6 °F 24% 30.21 in 10.0 mi Calm Calm - N/A   Unknown
5:55 PM 56.3 °F - 22.1 °F 27% 30.21 in 10.0 mi Calm Calm - N/A   Unknown
6:15 PM 55.9 °F - 22.3 °F 27% 30.20 in 10.0 mi Calm Calm - N/A   Unknown
6:35 PM 55.8 °F - 20.1 °F 25% 30.20 in 10.0 mi Calm Calm - N/A   Unknown
6:55 PM 55.2 °F - 23.4 °F 29% 30.20 in 10.0 mi Calm Calm - N/A   Unknown
7:15 PM 54.7 °F - 22.1 °F 28% 30.20 in 10.0 mi East 3.5 mph - N/A   Unknown
7:35 PM 53.2 °F - 21.9 °F 29% 30.21 in 10.0 mi ENE 5.8 mph - N/A   Unknown
7:55 PM 52.2 °F - 23.5 °F 33% 30.21 in 10.0 mi East 3.5 mph - N/A   Clear
8:15 PM 51.6 °F - 23.0 °F 33% 30.22 in 10.0 mi Calm Calm - N/A   Clear
8:35 PM 52.2 °F - 21.7 °F 30% 30.23 in 10.0 mi East 3.5 mph - N/A   Clear
8:55 PM 51.4 °F - 23.4 °F 33% 30.22 in 10.0 mi ENE 3.5 mph - N/A   Clear
9:15 PM 51.1 °F - 23.2 °F 34% 30.24 in 10.0 mi Calm Calm - N/A   Clear
9:35 PM 50.5 °F - 24.4 °F 36% 30.25 in 10.0 mi Calm Calm - N/A   Clear
9:55 PM 51.3 °F - 22.5 °F 32% 30.26 in 10.0 mi NNE 3.5 mph - N/A   Clear
10:15 PM 49.6 °F - 23.9 °F 37% 30.26 in 10.0 mi NE 4.6 mph - N/A   Clear
10:35 PM 47.8 °F - 27.9 °F 46% 30.26 in 10.0 mi NE 3.5 mph - N/A   Clear
10:55 PM 48.7 °F - 25.3 °F 40% 30.26 in 10.0 mi NNE 5.8 mph - N/A   Clear
11:15 PM 49.1 °F - 25.2 °F 39% 30.27 in 10.0 mi NNE 4.6 mph - N/A   Clear
11:35 PM 48.6 °F - 23.7 °F 38% 30.26 in 10.0 mi NE 4.6 mph - N/A   Clear
11:55 PM 48.6 °F - 23.0 °F 37% 30.26 in 10.0 mi NE 3.5 mph - N/A   Clear